Regional Weather Roundup
Issued by NWS

Home | Current Version | Previous Version | Graphics & Text | Print | Product List | Glossary On
Versions: 1 2 3 4 5 6 7 8 9 10 11 12 13 14 15 16 17 18 19 20 21 22 23 24 25 26 27 28 29 30 31 32 33 34 35 36 37 38 39 40 41 42 43 44 45 46 47 48 49 50
698
ASUS43 KTOP 040559
RWRKS

WEATHER ROUNDUP FOR KANSAS
NATIONAL WEATHER SERVICE GOODLAND KS
100 AM CDT WED MAY 04 2016

NOTE:  "FAIR" INDICATES FEW OR NO CLOUDS BELOW 12,000 FEET WITH NO
SIGNIFICANT WEATHER AND/OR OBSTRUCTIONS TO VISIBILITY.

KSZ001>006-013>018-027>032-041>047-040700-
NORTHWEST KANSAS

CITY           SKY/WX    TMP DP  RH WIND       PRES   REMARKS
GOODLAND       CLEAR     43  36  76 W8        30.13S
6HR MIN TEMP:  43; 6HR MAX TEMP:  67;

HAYS           CLEAR     48  37  66 W6        30.05S
HILL CITY      CLEAR     50  43  77 W8        30.06R
6HR MIN TEMP:  49; 6HR MAX TEMP:  69;

RUSSELL        CLEAR     50  44  80 W9        30.02S
6HR MIN TEMP:  50; 6HR MAX TEMP:  68;

$$

KSZ061>065-074>080-084>089-040700-
SOUTHWEST KANSAS

CITY           SKY/WX    TMP DP  RH WIND       PRES   REMARKS
DODGE CITY     CLEAR     47  41  80 W5        30.10S
6HR MIN TEMP:  47; 6HR MAX TEMP:  64;

ELKHART          N/A     48  37  65 W7          N/A
GARDEN CITY    CLEAR     43  39  86 W9        30.10S
6HR MIN TEMP:  43; 6HR MAX TEMP:  65;

GREAT BEND     CLEAR     48  39  71 W8        30.04S
LIBERAL        CLEAR     45  36  70 W8        30.14S
$$

KSZ066>073-081>083-090>101-040700-
SOUTHEAST KANSAS

CITY           SKY/WX    TMP DP  RH WIND       PRES   REMARKS
CHANUTE        CLEAR     55  47  74 SW7       29.97S
6HR MIN TEMP:  55; 6HR MAX TEMP:  69;

COFFEYVILLE    PTCLDY    54  48  80 S6        29.98S
6HR MIN TEMP:  54; 6HR MAX TEMP:  69;

HUTCHINSON     CLEAR     50  45  83 NW6       30.03S
6HR MIN TEMP:  49; 6HR MAX TEMP:  72;

MEDICINE LODGE   N/A     50  45  83 NW3       30.05R
NEWTON         CLEAR     52  41  66 W7        30.03S
PARSONS        MOCLDY    56  49  77 SW3       29.98F
6HR MIN TEMP:  53; 6HR MAX TEMP:  68; 6HR PCP: TRACE;

WICHITA INTL   CLEAR     56  45  66 NW7       30.01S
6HR MIN TEMP:  55; 6HR MAX TEMP:  70;

WICHITA JABRA  CLEAR     55  45  68 W8        30.01R
6HR MIN TEMP:  55; 6HR MAX TEMP:  69;

WINFIELD       CLEAR     54  46  74 CALM      30.38F
6HR MIN TEMP:  53; 6HR MAX TEMP:  69;

$$

KSZ007>012-019>026-033>040-048>060-102>105-040700-
NORTHEAST KANSAS

CITY           SKY/WX    TMP DP  RH WIND       PRES   REMARKS
CONCORDIA      CLEAR     54  43  66 W9        29.97S
6HR MIN TEMP:  54; 6HR MAX TEMP:  69;

EMPORIA        CLEAR     55  46  71 W6        29.97S
6HR MIN TEMP:  55; 6HR MAX TEMP:  69;

LAWRENCE       CLEAR     47  45  93 CALM      29.92F
6HR MIN TEMP:  46; 6HR MAX TEMP:  69;

MANHATTAN      CLEAR     53  46  77 SW8       29.95F
6HR MIN TEMP:  49; 6HR MAX TEMP:  72;

OLATHE IND     CLEAR     54  46  74 SW9       29.92F
6HR MIN TEMP:  54; 6HR MAX TEMP:  67;

OLATHE EXE     CLEAR     56  44  64 SW5       29.92F
6HR MIN TEMP:  53; 6HR MAX TEMP:  66;

SALINA         CLEAR     55  44  66 W6        29.99F
6HR MIN TEMP:  55; 6HR MAX TEMP:  71;

TOPEKA BILLARD CLEAR     51  47  86 SW3       29.92F
6HR MIN TEMP:  51; 6HR MAX TEMP:  70;

TOPEKA FORBES  CLEAR     53  46  77 W9        29.93S
6HR MIN TEMP:  53; 6HR MAX TEMP:  70; 6HR PCP: TRACE;

$$




USA.gov is the U.S. government's official web portal to all federal, state and local government web resources and services.